Date,TemperatureHighF,TemperatureAvgF,TemperatureLowF,DewpointHighF,DewpointAvgF,DewpointLowF,HumidityHigh,HumidityAvg,HumidityLow,PressureMaxIn,PressureMinIn,WindSpeedMaxMPH,WindSpeedAvgMPH,GustSpeedMaxMPH,PrecipitationSumIn
2013-1-1,14,10,6,-100,-100,-100,0,0,100,0.00,40.00,0,-999,0,0.00
2013-1-2,14,11,4,-100,-100,-100,0,0,100,0.00,40.00,0,-999,0,0.01
2013-1-3,25,14,5,-100,-100,-100,0,0,100,0.00,40.00,0,-999,0,0.01
2013-1-4,38,25,17,-100,-100,-100,0,0,100,0.00,40.00,0,-999,0,0.01
2013-1-5,25,18,13,-100,-100,-100,0,0,100,0.00,40.00,0,-999,0,0.00
2013-1-6,33,25,17,-100,-100,-100,0,0,100,0.00,40.00,0,-999,0,0.01
2013-1-7,30,23,16,-100,-100,-100,0,0,100,0.00,40.00,0,-999,0,0.00
2013-1-8,27,23,18,-100,-100,-100,0,0,100,0.00,40.00,0,-999,0,0.00
2013-1-9,36,28,21,-100,-100,-100,0,0,100,0.00,40.00,0,-999,0,0.00
2013-1-10,37,32,27,-100,-100,-100,0,0,100,0.00,40.00,0,-999,0,0.00
2013-1-11,26,8,-6,-100,-100,-100,0,0,100,0.00,40.00,0,-999,0,0.00
2013-1-12,1,-5,-8,-100,-100,-100,0,0,100,0.00,40.00,0,-999,0,0.01
2013-1-13,2,-5,-9,-100,-100,-100,0,0,100,0.00,40.00,0,-999,0,0.00
2013-1-14,-1,-7,-10,-100,-100,-100,0,0,100,0.00,40.00,0,-999,0,0.00
2013-1-15,18,8,-7,-100,-100,-100,0,0,100,0.00,40.00,0,-999,0,0.02
2013-1-16,27,18,12,-100,-100,-100,0,0,100,0.00,40.00,0,-999,0,0.01
2013-1-17,32,24,16,-100,-100,-100,0,0,100,0.00,40.00,0,-999,0,0.00
2013-1-18,33,27,20,-100,-100,-100,0,0,100,0.00,40.00,0,-999,0,0.00
2013-1-19,34,27,22,-100,-100,-100,0,0,100,0.00,40.00,0,-999,0,0.00
2013-1-20,30,25,19,-100,-100,-100,0,0,100,0.00,40.00,0,-999,0,0.00
2013-1-21,34,27,21,-100,-100,-100,0,0,100,0.00,40.00,0,-999,0,0.01
2013-1-22,38,30,22,-100,-100,-100,0,0,100,0.00,40.00,0,-999,0,0.00
2013-1-23,41,35,31,-100,-100,-100,0,0,100,0.00,40.00,0,-999,0,0.00
2013-1-24,38,33,29,-100,-100,-100,0,0,100,0.00,40.00,0,-999,0,0.00
2013-1-25,35,29,25,-100,-100,-100,0,0,100,0.00,40.00,0,-999,0,0.00
2013-1-26,38,32,28,-100,-100,-100,0,0,100,0.00,40.00,0,-999,0,0.00
2013-1-27,38,32,29,-100,-100,-100,0,0,100,0.00,40.00,0,-999,0,0.00
2013-1-28,31,22,10,-100,-100,-100,0,0,100,0.00,40.00,0,-999,0,0.01
2013-1-29,17,9,1,-100,-100,-100,0,0,100,0.00,40.00,0,-999,0,0.00
2013-1-30,20,14,4,-100,-100,-100,0,0,100,0.00,40.00,0,-999,0,0.01
2013-1-31,28,24,19,-100,-100,-100,0,0,100,0.00,40.00,0,-999,0,0.01
2013-2-1,28,24,21,-100,-100,-100,0,0,100,0.00,40.00,0,-999,0,0.01
2013-2-2,31,23,15,-100,-100,-100,0,0,100,0.00,40.00,0,-999,0,0.01
2013-2-3,33,26,18,-100,-100,-100,0,0,100,0.00,40.00,0,-999,0,0.00
2013-2-4,34,27,22,-100,-100,-100,0,0,100,0.00,40.00,0,-999,0,0.00
2013-2-5,36,29,22,-100,-100,-100,0,0,100,0.00,40.00,0,-999,0,0.00
2013-2-6,33,29,21,-100,-100,-100,0,0,100,0.00,40.00,0,-999,0,0.00
2013-2-7,32,23,16,-100,-100,-100,0,0,100,0.00,40.00,0,-999,0,0.00
2013-2-8,37,28,21,-100,-100,-100,0,0,100,0.00,40.00,0,-999,0,0.01
2013-2-9,22,18,17,-100,-100,-100,0,0,100,0.00,40.00,0,-999,0,0.03
2013-2-10,16,13,6,-100,-100,-100,0,0,100,0.00,40.00,0,-999,0,0.06
2013-2-11,20,6,-1,-100,-100,-100,0,0,100,0.00,40.00,0,-999,0,0.01
2013-2-12,18,10,1,-100,-100,-100,0,0,100,0.00,40.00,0,-999,0,0.01
2013-2-13,25,20,13,-100,-100,-100,0,0,100,0.00,40.00,0,-999,0,0.01
2013-2-14,21,15,12,-100,-100,-100,0,0,100,0.00,40.00,0,-999,0,0.01
2013-2-15,21,17,12,-100,-100,-100,0,0,100,0.00,40.00,0,-999,0,0.01
2013-2-16,32,25,20,-100,-100,-100,0,0,100,0.00,40.00,0,-999,0,0.01
2013-2-17,32,25,18,-100,-100,-100,0,0,100,0.00,40.00,0,-999,0,0.00
2013-2-18,20,16,11,-100,-100,-100,0,0,100,0.00,40.00,0,-999,0,0.01
2013-2-19,30,20,11,-100,-100,-100,0,0,100,0.00,40.00,0,-999,0,0.01
2013-2-20,37,25,17,-100,-100,-100,0,0,100,0.00,40.00,0,-999,0,0.01
2013-2-21,17,14,11,-100,-100,-100,0,0,100,0.00,40.00,0,-999,0,0.00
2013-2-22,18,15,12,-100,-100,-100,0,0,100,0.00,40.00,0,-999,0,0.01
2013-2-23,26,18,12,-100,-100,-100,0,0,100,0.00,40.00,0,-999,0,0.01
2013-2-24,18,15,9,-100,-100,-100,0,0,100,0.00,40.00,0,-999,0,0.02
2013-2-25,22,14,6,-100,-100,-100,0,0,100,0.00,40.00,0,-999,0,0.01
2013-2-26,18,17,15,-100,-100,-100,0,0,100,0.00,40.00,0,-999,0,0.03
2013-2-27,22,15,11,-100,-100,-100,0,0,100,0.00,40.00,0,-999,0,0.01
2013-2-28,25,18,12,-100,-100,-100,0,0,100,0.00,40.00,0,-999,0,0.00
2013-3-1,34,28,19,-100,-100,-100,0,0,100,0.00,40.00,0,-999,0,0.01
2013-3-2,41,32,25,-100,-100,-100,0,0,100,0.00,40.00,0,-999,0,0.01
2013-3-3,39,33,23,-100,-100,-100,0,0,100,0.00,40.00,0,-999,0,0.00
2013-3-4,20,14,6,-100,-100,-100,0,0,100,0.00,40.00,0,-999,0,0.00
2013-3-5,32,20,5,-100,-100,-100,0,0,100,0.00,40.00,0,-999,0,0.01
2013-3-6,42,34,23,-100,-100,-100,0,0,100,0.00,40.00,0,-999,0,0.01
2013-3-7,42,35,29,-100,-100,-100,0,0,100,0.00,40.00,0,-999,0,0.00
2013-3-8,45,37,32,-100,-100,-100,0,0,100,0.00,40.00,0,-999,0,0.00
2013-3-9,28,22,18,-100,-100,-100,0,0,100,0.00,40.00,0,-999,0,0.00
2013-3-10,34,24,14,-100,-100,-100,0,0,100,0.00,40.00,0,-999,0,0.01
2013-3-11,30,25,20,-100,-100,-100,0,0,100,0.00,40.00,0,-999,0,0.02
2013-3-12,34,23,13,-100,-100,-100,0,0,100,0.00,40.00,0,-999,0,0.02
2013-3-13,45,36,28,-100,-100,-100,0,0,100,0.00,40.00,0,-999,0,0.01
2013-3-14,50,42,35,-100,-100,-100,0,0,100,0.00,40.00,0,-999,0,0.00
2013-3-15,53,43,34,-100,-100,-100,0,0,100,0.00,40.00,0,-999,0,0.00
2013-3-16,41,33,28,-100,-100,-100,0,0,100,0.00,40.00,0,-999,0,0.00
2013-3-17,34,26,15,-100,-100,-100,0,0,100,0.00,40.00,0,-999,0,0.00
2013-3-18,28,21,13,-100,-100,-100,0,0,100,0.00,40.00,0,-999,0,0.00
2013-3-19,27,21,14,-100,-100,-100,0,0,100,0.00,40.00,0,-999,0,0.01
2013-3-20,41,30,15,-100,-100,-100,0,0,100,0.00,40.00,0,-999,0,0.01
2013-3-21,33,27,20,-100,-100,-100,0,0,100,0.00,40.00,0,-999,0,0.02
2013-3-22,24,17,11,-100,-100,-100,0,0,100,0.00,40.00,0,-999,0,0.02
2013-3-23,18,9,3,-100,-100,-100,0,0,100,0.00,40.00,0,-999,0,0.01
2013-3-24,13,8,3,-100,-100,-100,0,0,100,0.00,40.00,0,-999,0,0.00
2013-3-25,26,16,-1,-100,-100,-100,0,0,100,0.00,40.00,0,-999,0,0.01
2013-3-26,35,26,14,-100,-100,-100,0,0,100,0.00,40.00,0,-999,0,0.01
2013-3-27,42,33,27,-100,-100,-100,0,0,100,0.00,40.00,0,-999,0,0.01
2013-3-28,45,37,30,-100,-100,-100,0,0,100,0.00,40.00,0,-999,0,0.00
2013-3-29,49,41,31,-100,-100,-100,0,0,100,0.00,40.00,0,-999,0,0.00
2013-3-30,37,33,29,-100,-100,-100,0,0,100,0.00,40.00,0,-999,0,0.01
2013-3-31,47,36,26,-100,-100,-100,0,0,100,0.00,40.00,0,-999,0,0.01
2013-4-1,42,34,25,-100,-100,-100,0,0,100,0.00,40.00,0,-999,0,0.00
2013-4-2,46,35,28,-100,-100,-100,0,0,100,0.00,40.00,0,-999,0,0.00
2013-4-3,51,37,28,-100,-100,-100,0,0,100,0.00,40.00,0,-999,0,0.00
2013-4-4,52,40,31,-100,-100,-100,0,0,100,0.00,40.00,0,-999,0,0.00
2013-4-5,50,43,34,-100,-100,-100,0,0,100,0.00,40.00,0,-999,0,0.00
2013-4-6,45,37,30,-100,-100,-100,0,0,100,0.00,40.00,0,-999,0,0.00
2013-4-7,43,36,29,-100,-100,-100,0,0,100,0.00,40.00,0,-999,0,0.00
2013-4-8,35,23,5,-100,-100,-100,0,0,100,0.00,40.00,0,-999,0,0.00
2013-4-9,5,2,1,-100,-100,-100,0,0,100,0.00,40.00,0,-999,0,0.02
2013-4-10,23,15,1,-100,-100,-100,0,0,100,0.00,40.00,0,-999,0,0.02
2013-4-11,34,29,23,-100,-100,-100,0,0,100,0.00,40.00,0,-999,0,0.02
2013-4-12,32,27,23,-100,-100,-100,0,0,100,0.00,40.00,0,-999,0,0.02
2013-4-13,36,30,23,-100,-100,-100,0,0,100,0.00,40.00,0,-999,0,0.01
2013-4-14,29,22,18,-100,-100,-100,0,0,100,0.00,40.00,0,-999,0,0.01
2013-4-15,22,17,14,-100,-100,-100,0,0,100,0.00,40.00,0,-999,0,0.00
2013-4-16,20,14,10,-100,-100,-100,0,0,100,0.00,40.00,0,-999,0,0.03
2013-4-17,17,12,9,-100,-100,-100,0,0,100,0.00,40.00,0,-999,0,0.02
2013-4-18,37,18,8,-100,-100,-100,0,0,100,0.00,40.00,0,-999,0,0.01
2013-4-19,39,29,21,-100,-100,-100,0,0,100,0.00,40.00,0,-999,0,0.01
2013-4-20,38,33,30,-100,-100,-100,0,0,100,0.00,40.00,0,-999,0,0.01
2013-4-21,43,35,28,-100,-100,-100,0,0,100,0.00,40.00,0,-999,0,0.00
2013-4-22,31,18,8,-100,-100,-100,0,0,100,0.00,40.00,0,-999,0,0.00
2013-4-23,27,18,2,-100,-100,-100,0,0,100,0.00,40.00,0,-999,0,0.01
2013-4-24,34,32,28,-100,-100,-100,0,0,100,0.00,40.00,0,-999,0,0.00
2013-4-25,49,39,27,-100,-100,-100,0,0,100,0.00,40.00,0,-999,0,0.00
2013-4-26,53,42,32,-100,-100,-100,0,0,100,0.00,40.00,0,-999,0,0.00
2013-4-27,57,46,36,-100,-100,-100,0,0,100,0.00,40.00,0,-999,0,0.00
2013-4-28,53,46,38,-100,-100,-100,0,0,100,0.00,40.00,0,-999,0,0.00
2013-4-29,54,46,35,-100,-100,-100,0,0,100,0.00,40.00,0,-999,0,0.00
2013-4-30,37,30,24,-100,-100,-100,0,0,100,0.00,40.00,0,-999,0,0.00
2013-5-1,28,22,18,-100,-100,-100,0,0,100,0.00,40.00,0,-999,0,0.02
2013-5-2,37,27,14,-100,-100,-100,0,0,100,0.00,40.00,0,-999,0,0.01
2013-5-3,49,40,29,-100,-100,-100,0,0,100,0.00,40.00,0,-999,0,0.01
2013-5-4,45,38,33,-100,-100,-100,0,0,100,0.00,40.00,0,-999,0,0.00
2013-5-5,51,40,31,-100,-100,-100,0,0,100,0.00,40.00,0,-999,0,0.00
2013-5-6,53,44,35,-100,-100,-100,0,0,100,0.00,40.00,0,-999,0,0.00
2013-5-7,53,43,36,-100,-100,-100,0,0,100,0.00,40.00,0,-999,0,0.00
2013-5-8,53,44,36,-100,-100,-100,0,0,100,0.00,40.00,0,-999,0,0.00
2013-5-9,51,42,34,-100,-100,-100,0,0,100,0.00,40.00,0,-999,0,0.02
2013-5-10,53,43,34,-100,-100,-100,0,0,100,0.00,40.00,0,-999,0,0.02
2013-5-11,54,44,36,-100,-100,-100,0,0,100,0.00,40.00,0,-999,0,0.00
2013-5-12,63,52,41,-100,-100,-100,0,0,100,0.00,40.00,0,-999,0,0.00
2013-5-13,68,59,49,-100,-100,-100,0,0,100,0.00,40.00,0,-999,0,0.00
2013-5-14,68,60,53,-100,-100,-100,0,0,100,0.00,40.00,0,-999,0,0.00
2013-5-15,65,53,44,-100,-100,-100,0,0,100,0.00,40.00,0,-999,0,0.00
2013-5-16,59,50,42,-100,-100,-100,0,0,100,0.00,40.00,0,-999,0,0.01
2013-5-17,63,54,46,-100,-100,-100,0,0,100,0.00,40.00,0,-999,0,0.00
2013-5-18,55,46,41,-100,-100,-100,0,0,100,0.00,40.00,0,-999,0,0.00
2013-5-19,42,38,35,-100,-100,-100,0,0,100,0.00,40.00,0,-999,0,0.06
2013-5-20,37,35,33,-100,-100,-100,0,0,100,0.00,40.00,0,-999,0,0.07
2013-5-21,47,38,32,-100,-100,-100,0,0,100,0.00,40.00,0,-999,0,0.01
2013-5-22,56,45,33,-100,-100,-100,0,0,100,0.00,40.00,0,-999,0,0.00
2013-5-23,63,50,40,-100,-100,-100,0,0,100,0.00,40.00,0,-999,0,0.01
2013-5-24,60,51,42,-100,-100,-100,0,0,100,0.00,40.00,0,-999,0,0.00
2013-5-25,66,56,46,-100,-100,-100,0,0,100,0.00,40.00,0,-999,0,0.00
2013-5-26,65,56,46,-100,-100,-100,0,0,100,0.00,40.00,0,-999,0,0.00
2013-5-27,61,53,43,-100,-100,-100,0,0,100,0.00,40.00,0,-999,0,0.00
2013-5-28,58,48,41,-100,-100,-100,0,0,100,0.00,40.00,0,-999,0,0.01
2013-5-29,48,41,38,-100,-100,-100,0,0,100,0.00,40.00,0,-999,0,0.01
2013-5-30,41,38,35,-100,-100,-100,0,0,100,0.00,40.00,0,-999,0,0.01
2013-5-31,42,37,33,-100,-100,-100,0,0,100,0.00,40.00,0,-999,0,0.01
2013-6-1,50,40,33,-100,-100,-100,0,0,100,0.00,40.00,0,-999,0,0.01
2013-6-2,65,53,39,-100,-100,-100,0,0,100,0.00,40.00,0,-999,0,0.00
2013-6-3,59,54,43,-100,-100,-100,0,0,100,0.00,40.00,0,-999,0,0.00
2013-6-4,52,42,36,-100,-100,-100,0,0,100,0.00,40.00,0,-999,0,0.01
2013-6-5,54,43,32,-100,-100,-100,0,0,100,0.00,40.00,0,-999,0,0.00
2013-6-6,61,51,39,-100,-100,-100,0,0,100,0.00,40.00,0,-999,0,0.00
2013-6-7,65,55,44,-100,-100,-100,0,0,100,0.00,40.00,0,-999,0,0.00
2013-6-8,57,50,43,-100,-100,-100,0,0,100,0.00,40.00,0,-999,0,0.01
2013-6-9,73,59,45,-100,-100,-100,0,0,100,0.00,40.00,0,-999,0,0.01
2013-6-10,77,66,57,-100,-100,-100,0,0,100,0.00,40.00,0,-999,0,0.00
2013-6-11,74,64,54,-100,-100,-100,0,0,100,0.00,40.00,0,-999,0,0.00
2013-6-12,72,61,50,-100,-100,-100,0,0,100,0.00,40.00,0,-999,0,0.00
2013-6-13,70,61,53,-100,-100,-100,0,0,100,0.00,40.00,0,-999,0,0.01
2013-6-14,65,56,45,-100,-100,-100,0,0,100,0.00,40.00,0,-999,0,0.00
2013-6-15,65,53,39,-100,-100,-100,0,0,100,0.00,40.00,0,-999,0,0.00
2013-6-16,68,59,48,-100,-100,-100,0,0,100,0.00,40.00,0,-999,0,0.00
2013-6-17,67,57,47,-100,-100,-100,0,0,100,0.00,40.00,0,-999,0,0.01
2013-6-18,69,57,49,-100,-100,-100,0,0,100,0.00,40.00,0,-999,0,0.00
2013-6-19,76,62,49,-100,-100,-100,0,0,100,0.00,40.00,0,-999,0,0.00
2013-6-20,68,54,47,-100,-100,-100,0,0,100,0.00,40.00,0,-999,0,0.00
2013-6-22,68,56,45,-100,-100,-100,0,0,100,0.00,40.00,0,-999,0,0.01
2013-6-23,67,55,39,-100,-100,-100,0,0,100,0.00,40.00,0,-999,0,0.00
2013-6-24,74,65,51,-100,-100,-100,0,0,100,0.00,40.00,0,-999,0,0.00
2013-6-25,66,59,48,-100,-100,-100,0,0,100,0.00,40.00,0,-999,0,0.00
2013-6-26,73,64,52,-100,-100,-100,0,0,100,0.00,40.00,0,-999,0,0.00
2013-6-27,77,66,54,-100,-100,-100,0,0,100,0.00,40.00,0,-999,0,0.00
2013-6-28,75,66,55,-100,-100,-100,0,0,100,0.00,40.00,0,-999,0,0.00
2013-6-29,72,64,55,-100,-100,-100,0,0,100,0.00,40.00,0,-999,0,0.00
2013-6-30,69,60,50,-100,-100,-100,0,0,100,0.00,40.00,0,-999,0,0.01
2013-7-1,68,59,51,-100,-100,-100,0,0,100,0.00,40.00,0,-999,0,0.00
2013-7-2,69,60,51,-100,-100,-100,0,0,100,0.00,40.00,0,-999,0,0.00
2013-7-3,75,62,51,-100,-100,-100,0,0,100,0.00,40.00,0,-999,0,0.01
2013-7-4,75,64,54,-100,-100,-100,0,0,100,0.00,40.00,0,-999,0,0.00
2013-7-5,68,60,51,-100,-100,-100,0,0,100,0.00,40.00,0,-999,0,0.00
2013-7-6,71,57,51,-100,-100,-100,0,0,100,0.00,40.00,0,-999,0,0.01
2013-7-7,74,62,50,-100,-100,-100,0,0,100,0.00,40.00,0,-999,0,0.00
2013-7-8,72,61,54,-100,-100,-100,0,0,100,0.00,40.00,0,-999,0,0.00
2013-7-9,77,64,55,-100,-100,-100,0,0,100,0.00,40.00,0,-999,0,0.00
2013-7-10,78,66,57,-100,-100,-100,0,0,100,0.00,40.00,0,-999,0,0.00
2013-7-11,83,71,59,-100,-100,-100,0,0,100,0.00,40.00,0,-999,0,0.00
2013-7-12,71,64,57,-100,-100,-100,0,0,100,0.00,40.00,0,-999,0,0.00
2013-7-13,71,61,54,-100,-100,-100,0,0,100,0.00,40.00,0,-999,0,0.00
2013-7-14,66,58,49,-100,-100,-100,0,0,100,0.00,40.00,0,-999,0,0.01
2013-7-15,74,60,53,-100,-100,-100,0,0,100,0.00,40.00,0,-999,0,0.01
2013-7-16,73,62,52,-100,-100,-100,0,0,100,0.00,40.00,0,-999,0,0.01
2013-7-17,74,64,51,-100,-100,-100,0,0,100,0.00,40.00,0,-999,0,0.00
2013-7-18,75,67,58,-100,-100,-100,0,0,100,0.00,40.00,0,-999,0,0.00
2013-7-19,71,61,54,-100,-100,-100,0,0,100,0.00,40.00,0,-999,0,0.00
2013-7-20,76,62,56,-100,-100,-100,0,0,100,0.00,40.00,0,-999,0,0.01
2013-7-21,79,67,56,-100,-100,-100,0,0,100,0.00,40.00,0,-999,0,0.01
2013-7-22,79,67,55,-100,-100,-100,0,0,100,0.00,40.00,0,-999,0,0.00
2013-7-23,74,64,55,-100,-100,-100,0,0,100,0.00,40.00,0,-999,0,0.00
2013-7-24,70,61,54,-100,-100,-100,0,0,100,0.00,40.00,0,-999,0,0.00
2013-7-25,66,58,50,-100,-100,-100,0,0,100,0.00,40.00,0,-999,0,0.02
2013-7-26,71,62,49,-100,-100,-100,0,0,100,0.00,40.00,0,-999,0,0.01
2013-7-27,68,58,50,-100,-100,-100,0,0,100,0.00,40.00,0,-999,0,0.01
2013-7-28,69,57,48,-100,-100,-100,0,0,100,0.00,40.00,0,-999,0,0.02
2013-7-29,69,56,49,-100,-100,-100,0,0,100,0.00,40.00,0,-999,0,0.01
2013-7-30,70,58,48,-100,-100,-100,0,0,100,0.00,40.00,0,-999,0,0.01
2013-7-31,71,59,49,-100,-100,-100,0,0,100,0.00,40.00,0,-999,0,0.01
2013-8-1,76,64,56,-100,-100,-100,0,0,100,0.00,40.00,0,-999,0,0.00
2013-8-2,74,65,54,-100,-100,-100,0,0,100,0.00,40.00,0,-999,0,0.81
2013-8-3,73,62,54,-100,-100,-100,0,0,100,0.00,40.00,0,-999,0,0.01
2013-8-4,77,64,53,-100,-100,-100,0,0,100,0.00,40.00,0,-999,0,0.00
2013-8-5,75,64,52,-100,-100,-100,0,0,100,0.00,40.00,0,-999,0,0.00
2013-8-6,73,64,51,-100,-100,-100,0,0,100,0.00,40.00,0,-999,0,0.00
2013-8-7,70,59,51,-100,-100,-100,0,0,100,0.00,40.00,0,-999,0,0.00
2013-8-8,68,57,52,-100,-100,-100,0,0,100,0.00,40.00,0,-999,0,0.01
2013-8-9,64,54,48,-100,-100,-100,0,0,100,0.00,40.00,0,-999,0,0.01
2013-8-10,70,58,48,-100,-100,-100,0,0,100,0.00,40.00,0,-999,0,0.01
2013-8-11,66,57,51,-100,-100,-100,0,0,100,0.00,40.00,0,-999,0,0.01
2013-8-12,66,57,50,-100,-100,-100,0,0,100,0.00,40.00,0,-999,0,0.00
2013-8-13,61,54,48,-100,-100,-100,0,0,100,0.00,40.00,0,-999,0,0.01
2013-8-14,69,56,46,-100,-100,-100,0,0,100,0.00,40.00,0,-999,0,0.00
2013-8-15,71,61,51,-100,-100,-100,0,0,100,0.00,40.00,0,-999,0,0.00
2013-8-16,76,67,55,-100,-100,-100,0,0,100,0.00,40.00,0,-999,0,0.00
2013-8-17,80,70,59,-100,-100,-100,0,0,100,0.00,40.00,0,-999,0,0.00
2013-8-18,77,70,62,-100,-100,-100,0,0,100,0.00,40.00,0,-999,0,0.00
2013-8-19,77,67,58,-100,-100,-100,0,0,100,0.00,40.00,0,-999,0,0.00
2013-8-20,74,67,59,-100,-100,-100,0,0,100,0.00,40.00,0,-999,0,0.01
2013-8-21,68,60,52,-100,-100,-100,0,0,100,0.00,40.00,0,-999,0,0.01
2013-8-22,70,61,53,-100,-100,-100,0,0,100,0.00,40.00,0,-999,0,0.00
2013-8-23,73,62,53,-100,-100,-100,0,0,100,0.00,40.00,0,-999,0,0.00
2013-8-24,69,59,50,-100,-100,-100,0,0,100,0.00,40.00,0,-999,0,0.01
2013-8-25,68,61,54,-100,-100,-100,0,0,100,0.00,40.00,0,-999,0,0.00
2013-8-26,69,61,53,-100,-100,-100,0,0,100,0.00,40.00,0,-999,0,0.00
2013-8-27,72,61,54,-100,-100,-100,0,0,100,0.00,40.00,0,-999,0,0.00
2013-8-28,75,71,63,-100,-100,-100,0,0,100,0.00,40.00,0,-999,0,0.00
2013-8-29,75,65,57,-100,-100,-100,0,0,100,0.00,40.00,0,-999,0,0.00
2013-8-30,78,69,60,-100,-100,-100,0,0,100,0.00,40.00,0,-999,0,0.00
2013-8-31,71,62,56,-100,-100,-100,0,0,100,0.00,40.00,0,-999,0,0.00
2013-9-1,73,62,52,-100,-100,-100,0,0,100,0.00,40.00,0,-999,0,0.00
2013-9-2,75,64,55,-100,-100,-100,0,0,100,0.00,40.00,0,-999,0,0.01
2013-9-3,73,62,54,-100,-100,-100,0,0,100,0.00,40.00,0,-999,0,0.01
2013-9-4,76,67,59,-100,-100,-100,0,0,100,0.00,40.00,0,-999,0,0.00
2013-9-5,78,68,58,-100,-100,-100,0,0,100,0.00,40.00,0,-999,0,0.00
2013-9-6,75,66,60,-100,-100,-100,0,0,100,0.00,40.00,0,-999,0,0.00
2013-9-8,72,62,52,-100,-100,-100,0,0,100,0.00,40.00,0,-999,0,0.01
2013-9-9,58,53,49,-100,-100,-100,0,0,100,0.00,40.00,0,-999,0,0.01
2013-9-10,56,51,48,-100,-100,-100,0,0,100,0.00,40.00,0,-999,0,0.00
2013-9-11,55,52,50,-100,-100,-100,0,0,100,0.00,40.00,0,-999,0,0.02
2013-9-12,56,52,49,-100,-100,-100,0,0,100,0.00,40.00,0,-999,0,0.01
2013-9-13,53,51,50,-100,-100,-100,0,0,100,0.00,40.00,0,-999,0,0.02
2013-9-14,58,51,47,-100,-100,-100,0,0,100,0.00,40.00,0,-999,0,0.02
2013-9-15,57,50,46,-100,-100,-100,0,0,100,0.00,40.00,0,-999,0,0.02
2013-9-16,62,53,44,-100,-100,-100,0,0,100,0.00,40.00,0,-999,0,0.00
2013-9-17,64,55,49,-100,-100,-100,0,0,100,0.00,40.00,0,-999,0,0.00
2013-9-18,54,49,42,-100,-100,-100,0,0,100,0.00,40.00,0,-999,0,0.00
2013-9-19,48,41,36,-100,-100,-100,0,0,100,0.00,40.00,0,-999,0,0.00
2013-9-20,62,50,36,-100,-100,-100,0,0,100,0.00,40.00,0,-999,0,0.00
2013-9-21,65,55,47,-100,-100,-100,0,0,100,0.00,40.00,0,-999,0,0.00
2013-9-22,63,53,44,-100,-100,-100,0,0,100,0.00,40.00,0,-999,0,0.01
2013-9-23,49,43,40,-100,-100,-100,0,0,100,0.00,40.00,0,-999,0,0.01
2013-9-24,61,50,39,-100,-100,-100,0,0,100,0.00,40.00,0,-999,0,0.00
2013-9-25,63,53,40,-100,-100,-100,0,0,100,0.00,40.00,0,-999,0,0.00
2013-9-26,56,42,35,-100,-100,-100,0,0,100,0.00,40.00,0,-999,0,0.00
2013-9-27,36,31,28,-100,-100,-100,0,0,100,0.00,40.00,0,-999,0,0.03
2013-9-28,42,33,27,-100,-100,-100,0,0,100,0.00,40.00,0,-999,0,0.01
2013-9-29,54,44,36,-100,-100,-100,0,0,100,0.00,40.00,0,-999,0,0.00
2013-9-30,59,52,44,-100,-100,-100,0,0,100,0.00,40.00,0,-999,0,0.00
2013-10-1,58,54,51,-100,-100,-100,0,0,100,0.00,40.00,0,-999,0,0.00
2013-10-2,53,46,39,-100,-100,-100,0,0,100,0.00,40.00,0,-999,0,0.00
2013-10-3,43,39,35,-100,-100,-100,0,0,100,0.00,40.00,0,-999,0,0.01
2013-10-4,27,22,20,-100,-100,-100,0,0,100,0.00,40.00,0,-999,0,0.14
2013-10-5,32,27,19,-100,-100,-100,0,0,100,0.00,40.00,0,-999,0,0.02
2013-10-6,45,36,31,-100,-100,-100,0,0,100,0.00,40.00,0,-999,0,0.01
2013-10-7,53,43,36,-100,-100,-100,0,0,100,0.00,40.00,0,-999,0,0.00
2013-10-8,56,47,43,-100,-100,-100,0,0,100,0.00,40.00,0,-999,0,0.00
2013-10-9,48,41,36,-100,-100,-100,0,0,100,0.00,40.00,0,-999,0,0.00
2013-10-10,47,43,39,-100,-100,-100,0,0,100,0.00,40.00,0,-999,0,0.00
2013-10-11,34,32,28,-100,-100,-100,0,0,100,0.00,40.00,0,-999,0,0.06
2013-10-12,40,32,26,-100,-100,-100,0,0,100,0.00,40.00,0,-999,0,0.01
2013-10-13,48,43,35,-100,-100,-100,0,0,100,0.00,40.00,0,-999,0,0.00
2013-10-21,38,36,32,-100,-100,-100,0,0,100,0.00,40.00,0,-999,0,0.00
2013-10-22,47,41,36,-100,-100,-100,0,0,100,0.00,40.00,0,-999,0,0.00
2013-10-23,49,39,35,-100,-100,-100,0,0,100,0.00,40.00,0,-999,0,0.00
2013-10-24,43,41,40,-100,-100,-100,0,0,100,0.00,40.00,0,-999,0,0.00
2013-10-25,42,39,35,-100,-100,-100,0,0,100,0.00,40.00,0,-999,0,0.00
2013-10-26,50,42,32,-100,-100,-100,0,0,100,0.00,40.00,0,-999,0,0.00
2013-10-27,38,38,38,-100,-100,-100,0,0,100,0.00,40.00,0,-999,0,0.00
2013-10-28,39,34,29,-100,-100,-100,0,0,100,0.00,40.00,0,-999,0,0.00
2013-10-29,34,32,28,-100,-100,-100,0,0,100,0.00,40.00,0,-999,0,0.00
2013-10-30,34,31,28,-100,-100,-100,0,0,100,0.00,40.00,0,-999,0,0.00
2013-10-31,38,33,23,-100,-100,-100,0,0,100,0.00,40.00,0,-999,0,0.00
2013-11-1,33,32,30,-100,-100,-100,0,0,100,0.00,40.00,0,-999,0,0.00
2013-11-2,47,41,29,-100,-100,-100,0,0,100,0.00,40.00,0,-999,0,0.00
2013-11-3,38,34,25,-100,-100,-100,0,0,100,0.00,40.00,0,-999,0,0.00
2013-11-12,48,40,28,-100,-100,-100,0,0,100,0.00,40.00,0,-999,0,0.00
2013-11-13,46,43,41,-100,-100,-100,0,0,100,0.00,40.00,0,-999,0,0.00
2013-11-14,38,35,32,-100,-100,-100,0,0,100,0.00,40.00,0,-999,0,0.00
2013-11-15,35,30,26,-100,-100,-100,0,0,100,0.00,40.00,0,-999,0,0.00
2013-11-16,26,24,21,-100,-100,-100,0,0,100,0.00,40.00,0,-999,0,0.00
2013-11-17,28,28,28,-100,-100,-100,0,0,100,0.00,40.00,0,-999,0,0.00
2013-11-18,38,31,26,-100,-100,-100,0,0,100,0.00,40.00,0,-999,0,0.01
2013-11-19,41,35,31,-100,-100,-100,0,0,100,0.00,40.00,0,-999,0,0.00
2013-11-20,37,24,8,-100,-100,-100,0,0,100,0.00,40.00,0,-999,0,0.00
2013-11-21,11,7,3,-100,-100,-100,0,0,100,0.00,40.00,0,-999,0,0.00
2013-11-22,27,18,8,-100,-100,-100,0,0,100,0.00,40.00,0,-999,0,0.01
2013-11-23,36,29,19,-100,-100,-100,0,0,100,0.00,40.00,0,-999,0,0.01
2013-11-24,39,30,24,-100,-100,-100,0,0,100,0.00,40.00,0,-999,0,0.00
2013-11-25,32,29,27,-100,-100,-100,0,0,100,0.00,40.00,0,-999,0,0.00
2013-11-26,36,30,26,-100,-100,-100,0,0,100,0.00,40.00,0,-999,0,0.00
2013-11-27,39,30,25,-100,-100,-100,0,0,100,0.00,40.00,0,-999,0,0.00
2013-11-28,41,33,28,-100,-100,-100,0,0,100,0.00,40.00,0,-999,0,0.00
2013-11-29,38,33,28,-100,-100,-100,0,0,100,0.00,40.00,0,-999,0,0.00
2013-11-30,34,30,28,-100,-100,-100,0,0,100,0.00,40.00,0,-999,0,0.00
2013-12-1,31,29,26,-100,-100,-100,0,0,100,0.00,40.00,0,-999,0,0.00
2013-12-2,35,34,32,-100,-100,-100,0,0,100,0.00,40.00,0,-999,0,0.00
2013-12-3,5,0,-6,-100,-100,-100,0,0,100,0.00,40.00,0,-999,0,0.00
2013-12-4,-6,-9,-13,-100,-100,-100,0,0,100,0.00,40.00,0,-999,0,0.00
2013-12-9,3,1,-8,-100,-100,-100,0,0,100,0.00,40.00,0,-999,0,0.00
2013-12-10,14,10,7,-100,-100,-100,0,0,100,0.00,40.00,0,-999,0,0.01
2013-12-11,20,14,8,-100,-100,-100,0,0,100,0.00,40.00,0,-999,0,0.01
2013-12-12,32,22,18,-100,-100,-100,0,0,100,0.00,40.00,0,-999,0,0.01
2013-12-13,27,24,20,-100,-100,-100,0,0,100,0.00,40.00,0,-999,0,0.00
2013-12-14,24,21,18,-100,-100,-100,0,0,100,0.00,40.00,0,-999,0,0.00
2013-12-15,32,29,24,-100,-100,-100,0,0,100,0.00,40.00,0,-999,0,0.00
2013-12-16,35,29,23,-100,-100,-100,0,0,100,0.00,40.00,0,-999,0,0.00
2013-12-17,38,32,28,-100,-100,-100,0,0,100,0.00,40.00,0,-999,0,0.00
2013-12-18,39,35,31,-100,-100,-100,0,0,100,0.00,40.00,0,-999,0,0.00
2013-12-19,33,15,3,-100,-100,-100,0,0,100,0.00,40.00,0,-999,0,0.00
2013-12-20,14,11,9,-100,-100,-100,0,0,100,0.00,40.00,0,-999,0,0.01
2013-12-21,18,15,11,-100,-100,-100,0,0,100,0.00,40.00,0,-999,0,0.01
2013-12-22,18,14,13,-100,-100,-100,0,0,100,0.00,40.00,0,-999,0,0.00
2013-12-23,29,22,13,-100,-100,-100,0,0,100,0.00,40.00,0,-999,0,0.01
2013-12-24,28,20,14,-100,-100,-100,0,0,100,0.00,40.00,0,-999,0,0.01
2013-12-25,22,16,13,-100,-100,-100,0,0,100,0.00,40.00,0,-999,0,0.00
2013-12-26,28,24,21,-100,-100,-100,0,0,100,0.00,40.00,0,-999,0,0.00
2013-12-27,23,23,23,-100,-100,-100,0,0,100,0.00,40.00,0,-999,0,0.00
2013-12-28,20,16,11,-100,-100,-100,0,0,100,0.00,40.00,0,-999,0,0.00
2013-12-29,18,11,6,-100,-100,-100,0,0,100,0.00,40.00,0,-999,0,0.00
2013-12-30,24,24,23,-100,-100,-100,0,0,100,0.00,40.00,0,-999,0,0.00
2013-12-31,27,26,24,-100,-100,-100,0,0,100,0.00,40.00,0,-999,0,0.00
2014-1-1,26,20,14,-100,-100,-100,0,0,100,0.00,40.00,0,-999,0,0.02
2014-1-2,25,19,15,-100,-100,-100,0,0,100,0.00,40.00,0,-999,0,0.01